This is the latest recevied weather packets stored in our database for station/object BV3BA-13. If no packets are shown the sender has not sent any weather packets the latest 10 day(s).
| Time | Temp. | Humidity | Pressure | Rain* | Wind** | Luminosity | Snow |
|---|---|---|---|---|---|---|---|
| 1777835823 | 22.22° C | 77% | 1010.7 hPa | 0 mm | - | - | - |
| 1777829823 | 23.33° C | 78% | 1010.3 hPa | 0 mm | - | - | - |
| 1777825624 | 24.44° C | 83% | 1010.2 hPa | 0 mm | - | - | - |
| 1777825024 | 24.44° C | 84% | 1010.1 hPa | 0 mm | - | - | - |
| 1777824424 | 24.44° C | 85% | 1010.1 hPa | 0 mm | - | - | - |
| 1777823823 | 24.44° C | 86% | 1010.1 hPa | 0 mm | - | - | - |
| 1777822623 | 25° C | 86% | 1009.9 hPa | 0 mm | - | - | - |
| 1777822023 | 25° C | 86% | 1010 hPa | 0 mm | - | - | - |
| 1777821423 | 25° C | 86% | 1009.9 hPa | 0 mm | - | - | - |
| 1777820824 | 25° C | 85% | 1009.8 hPa | 0 mm | - | - | - |
| 1777820224 | 25° C | 85% | 1009.7 hPa | 0 mm | - | - | - |
| 1777819025 | 25° C | 85% | 1009.5 hPa | 0 mm | - | - | - |
| 1777816624 | 25.56° C | 83% | 1008.8 hPa | 0 mm | - | - | - |
| 1777816024 | 25.56° C | 84% | 1008.5 hPa | 0 mm | - | - | - |
| 1777815424 | 25.56° C | 85% | 1008.5 hPa | 0 mm | - | - | - |
| 1777814224 | 25.56° C | 88% | 1008.7 hPa | 0 mm | - | - | - |
| 1777813624 | 25.56° C | 89% | 1008.5 hPa | 0 mm | - | - | - |
| 1777811824 | 25.56° C | 91% | 1008.5 hPa | 0 mm | - | - | - |
| 1777811224 | 25.56° C | 91% | 1008.5 hPa | 0 mm | - | - | - |
| 1777810624 | 26.11° C | 91% | 1008.5 hPa | 0 mm | - | - | - |
| 1777810024 | 26.11° C | 91% | 1008.3 hPa | 0 mm | - | - | - |
| 1777809427 | 26.11° C | 91% | 1008.1 hPa | 0 mm | - | - | - |
| 1777808824 | 26.11° C | 90% | 1007.9 hPa | 0 mm | - | - | - |
| 1777807023 | 26.11° C | 91% | 1007.5 hPa | 0 mm | - | - | - |
| 1777806424 | 26.11° C | 90% | 1007.4 hPa | 0 mm | - | - | - |
* Rain latest hour (hover to see other rain measurements)
** Current wind speed in m/s (hover to see current wind gust speed)